Regional Weather Roundup
Issued by NWS

Home | Current Version | Previous Version | Graphics & Text | Print | Product List | Glossary On
Versions: 1 2 3 4 5 6 7 8 9 10 11 12 13 14 15 16 17 18 19 20 21 22 23 24 25 26 27 28 29 30 31 32 33 34 35 36 37 38 39 40 41 42 43 44 45 46 47 48 49 50
360
ASUS45 KSLC 291210
RWRUT

UTAH REGIONAL WEATHER ROUNDUP
NATIONAL WEATHER SERVICE SALT LAKE CITY UT
600 AM MDT FRI APR 29 2016

UTZ001>011-023>025-291300-

NORTHERN UTAH

CITY           SKY/WX    TMP DP  RH WIND       PRES   REMARKS
BRIGHAM CITY   CLOUDY    46  27  47 SE7G18    29.86F
HILL AFB       CLOUDY    42  29  61 E18       29.86S
LOGAN          CLOUDY    44  29  55 S8        29.88S
OGDEN          CLOUDY    43  31  62 SE5       29.85S
PROVO AIRPORT  PTCLDY    39  36  87 SE3       29.87R
SALT LAKE CITY MOCLDY    43  36  76 CALM      29.86R
VERNAL         CLOUDY    39  33  79 NE8       29.84F WCI  33
WENDOVER       PTCLDY    48  28  46 NW17      29.86F
HEBER CITY     LGT SNOW  34  32  93 CALM      29.88S

$$

UTZ012>022-026-027-291300-

SOUTHERN/CENTRAL UTAH

CITY           SKY/WX    TMP DP  RH WIND       PRES   REMARKS
BLANDING       CLOUDY    34  32  91 NE5       29.91R WCI  30
BRYCE CANYON   CLOUDY    33  31  92 NW7       29.87R WCI  27
CEDAR CITY     CLOUDY    39  38  96 CALM      29.88R
DELTA          CLOUDY    39  39 100 S3        29.87S
MILFORD        LGT RAIN  42  39  89 CALM      29.88R
MOAB/CYNLANDS  CLEAR     37  35  92 NW5       29.82R WCI  33
PRICE          CLOUDY    37  33  85 NE6       29.84R WCI  32
ST GEORGE      PTSUNNY   45  39  81 SE5       29.88S
KANAB          CLOUDY    41  41 100 NW3       29.91R

$$

REGIONAL REPORTS     COLORADO/ARIZONA

CITY           SKY/WX    TMP DP  RH WIND       PRES   REMARKS
CRAIG, CO      CLOUDY    36  33  89 NE6       29.84S WCI  31
GRAND JUNCTION CLOUDY    38  37  97 NW3       29.82S
RIFLE          PTCLDY    41  36  82 CALM      29.81F
MONTROSE       CLOUDY    39  35  86 NE3       29.83S
CORTEZ         CLOUDY    32  29  88 E3        29.84S
PAGE, AZ       CLOUDY    47  44  90 CALM      29.83S
GRAND CANYON   LGT RAIN  39  36  89 W6        29.89S WCI  35
KINGMAN        PTCLDY    45  40  82 CALM      29.90R
FLAGSTAFF      CLOUDY    34  34 100 SW5       29.90R WCI  30

$$

REGIONAL REPORTS    NEVADA/IDAHO/WYOMING

CITY           SKY/WX    TMP DP  RH WIND       PRES   REMARKS
LAS VEGAS, NV  PTCLDY    54  45  71 SW3       29.82R
ELY            PTCLDY    31  30  96 CALM      29.93F
ELKO           CLOUDY    42  36  79 CALM      29.94R
POCATELLO, ID  CLOUDY    42  34  73 S7        29.87S
BURLEY         CLOUDY    43  38  82 W7        29.87R
EVANSTON, WY   CLOUDY    31  27  85 NE5       29.90S WCI  26
ROCK SPRINGS   CLOUDY    30  26  85 NE15      29.91F WCI  19

$$




USA.gov is the U.S. government's official web portal to all federal, state and local government web resources and services.